Date String (YYYY-MM-DD hh:mm:ss) UTC,Instrument flags,absolute air pressure of the measurement (hPa),sample flow rate (lpm),inlet stack bypass flow (lpm),air temperature of the measurement (°C),ambient temperature measured by the external sensor (°C),aerosol sample conditioner tube jacket temperature (°C),OPC LED temperature (°C),internal box temperature (°C),relative humidity of the measurement (%),span deviation,mass concentration of particles derived from Lorenz-Mie calculation of OPC scattering (μg/m³),mass concentration of particles derived from Lorenz-Mie calculation of OPC scattering (μg/m³),mass concentration of particles derived from Lorenz-Mie calculation of OPC scattering (μg/m³)
DateTimeUTC,F1_M11,P_M11,Q1_M11,Q2_M11,T1_M11,T2_M11,T3_M11,T4_M11,T5_M11,U1_M11,ZSPAN_M11,X0_M11,X2_M11,X1_M11
2023-10-16 14:00:00,SystemResetWarning,0839.1,5.00,000.00,027.3,025.8,000.0,035.7,029.0,14.7,0000.0,0005.93,0003.05,0002.61
2023-10-16 14:01:00,SystemResetWarning,0839.1,5.00,000.00,027.3,025.8,000.0,035.7,029.0,14.7,0000.0,0005.92,0003.07,0002.63
2023-10-16 14:02:00,SystemResetWarning,0839.2,5.00,000.00,027.3,025.9,000.0,035.7,029.0,14.7,0000.0,0006.20,0003.12,0002.64
2023-10-16 14:03:00,SystemResetWarning,0839.2,5.00,000.00,027.3,025.9,000.0,035.7,029.0,14.8,0000.0,0006.90,0003.13,0002.63
2023-10-16 14:04:00,SystemResetWarning,0839.2,5.00,000.00,027.3,025.9,000.0,035.8,029.0,14.8,0000.0,0007.41,0003.13,0002.63
2023-10-16 14:05:00,SystemResetWarning,0839.2,5.00,000.00,027.3,025.9,000.0,035.8,029.0,14.9,0000.0,0007.28,0003.15,0002.63
2023-10-16 14:06:00,SystemResetWarning,0839.2,5.00,000.00,027.3,025.9,000.0,035.8,029.0,15.0,0000.0,0007.05,0003.16,0002.65
2023-10-16 14:07:00,SystemResetWarning,0839.1,5.00,000.00,027.3,025.9,000.0,035.8,029.0,15.0,0000.0,0006.97,0003.17,0002.68
2023-10-16 14:08:00,SystemResetWarning,0839.1,5.00,000.00,027.3,025.9,000.0,035.8,029.0,15.0,0000.0,0007.10,0003.20,0002.71
2023-10-16 14:09:00,SystemResetWarning,0839.1,5.00,000.00,027.3,025.9,000.0,035.8,029.0,15.1,0000.0,0007.44,0003.23,0002.76
2023-10-16 14:10:00,SystemResetWarning,0839.1,5.00,000.00,027.3,025.9,000.0,035.8,029.0,15.1,0000.0,0007.65,0003.28,0002.82
2023-10-16 14:11:00,SystemResetWarning,0839.1,5.00,000.00,027.3,025.9,000.0,035.8,029.0,15.2,0000.0,0007.65,0003.28,0002.87
2023-10-16 14:12:00,SystemResetWarning,0839.1,5.00,000.00,027.4,025.9,000.0,035.8,029.0,15.2,0000.0,0007.67,0003.31,0002.91
2023-10-16 14:13:00,SystemResetWarning,0839.1,5.00,000.00,027.4,025.9,000.0,035.8,029.0,15.2,0000.0,0007.63,0003.32,0002.95
2023-10-16 14:14:00,SystemResetWarning,0839.1,5.00,000.00,027.4,025.9,000.0,035.8,029.1,15.2,0000.0,0007.41,0003.33,0003.00
2023-10-16 14:15:00,SystemResetWarning,0839.1,5.00,000.00,027.4,025.9,000.0,035.8,029.1,15.2,0000.0,0006.44,0003.40,0003.05
2023-10-16 14:16:00,SystemResetWarning,0839.1,5.00,000.00,027.4,025.9,000.0,035.8,029.1,15.4,0000.0,0006.36,0003.45,0003.10
2023-10-16 14:17:00,SystemResetWarning,0839.1,5.00,000.00,027.4,025.9,000.0,035.8,029.1,15.3,0000.0,0005.90,0003.49,0003.13
2023-10-16 14:18:00,SystemResetWarning,0839.0,5.00,000.00,027.4,025.9,000.0,035.8,029.1,15.3,0000.0,0005.95,0003.53,0003.15
2023-10-16 14:19:00,SystemResetWarning,0839.0,5.00,000.00,027.4,025.9,000.0,035.8,029.1,15.3,0000.0,0006.12,0003.54,0003.17
2023-10-16 14:20:00,SystemResetWarning,0839.0,5.00,000.00,027.4,026.0,000.0,035.8,029.1,15.3,0000.0,0006.28,0003.56,0003.18
2023-10-16 14:21:00,SystemResetWarning,0839.0,4.99,000.00,027.4,026.0,000.0,035.8,029.1,15.4,0000.0,0005.96,0003.55,0003.19
2023-10-16 14:22:00,SystemResetWarning,0839.1,5.00,000.00,027.4,026.0,000.0,035.8,029.1,15.4,0000.0,0006.28,0003.57,0003.20
2023-10-16 14:23:00,SystemResetWarning,0839.1,5.00,000.00,027.4,026.0,000.0,035.8,029.1,15.4,0000.0,0006.84,0003.62,0003.22
2023-10-16 14:24:00,SystemResetWarning,0839.1,5.00,000.00,027.4,026.0,000.0,035.9,029.1,15.2,0000.0,0006.89,0003.65,0003.24
2023-10-16 14:25:00,SystemResetWarning,0839.1,5.00,000.00,027.4,026.1,000.0,035.9,029.2,15.3,0000.0,0006.90,0003.66,0003.27
2023-10-16 14:26:00,SystemResetWarning,0839.0,5.00,000.00,027.5,026.1,000.0,035.9,029.2,15.3,0000.0,0006.91,0003.67,0003.29
2023-10-16 14:27:00,SystemResetWarning,0839.0,5.00,000.00,027.5,026.1,000.0,035.9,029.2,15.4,0000.0,0006.80,0003.66,0003.30
2023-10-16 14:28:00,SystemResetWarning,0839.0,5.00,000.00,027.5,026.1,000.0,035.9,029.2,15.3,0000.0,0006.77,0003.66,0003.31
2023-10-16 14:29:00,SystemResetWarning,0839.0,5.00,000.00,027.5,026.1,000.0,035.9,029.2,15.3,0000.0,0007.48,0003.67,0003.31
2023-10-16 14:30:00,SystemResetWarning,0838.9,5.00,000.00,027.5,026.2,000.0,035.9,029.2,15.2,0000.0,0007.69,0003.66,0003.32
2023-10-16 14:31:00,SystemResetWarning,0839.0,5.00,000.00,027.5,026.2,000.0,035.9,029.2,15.2,0000.0,0007.52,0003.67,0003.32
2023-10-16 14:32:00,SystemResetWarning,0839.0,5.00,000.00,027.5,026.2,000.0,035.9,029.2,15.1,0000.0,0007.59,0003.68,0003.33
2023-10-16 14:33:00,SystemResetWarning,0839.0,5.00,000.00,027.5,026.2,000.0,035.9,029.2,15.2,0000.0,0007.56,0003.69,0003.34
2023-10-16 14:34:00,SystemResetWarning,0839.1,5.00,000.00,027.5,026.2,000.0,035.9,029.3,15.4,0000.0,0007.52,0003.70,0003.35
2023-10-16 14:35:00,SystemResetWarning,0839.1,5.00,000.00,027.6,026.2,000.0,036.0,029.3,15.4,0000.0,0008.00,0003.70,0003.35
2023-10-16 14:36:00,SystemResetWarning,0839.1,5.00,000.00,027.6,026.2,000.0,035.9,029.3,15.2,0000.0,0008.93,0003.70,0003.34
2023-10-16 14:37:00,SystemResetWarning,0839.1,5.00,000.00,027.6,026.3,000.0,036.0,029.3,14.9,0000.0,0009.07,0003.69,0003.33
2023-10-16 14:38:00,SystemResetWarning,0839.1,4.99,000.00,027.6,026.3,000.0,036.0,029.3,15.0,0000.0,0009.28,0003.67,0003.34
2023-10-16 14:39:00,SystemResetWarning,0839.1,4.99,000.00,027.6,026.3,000.0,036.0,029.3,15.2,0000.0,0009.33,0003.67,0003.33
2023-10-16 14:40:00,SystemResetWarning,0839.1,5.00,000.00,027.6,026.3,000.0,036.0,029.3,15.4,0000.0,0008.92,0003.65,0003.32
2023-10-16 14:41:00,SystemResetWarning,0839.1,5.00,000.00,027.6,026.3,000.0,036.0,029.3,15.9,0000.0,0008.74,0003.68,0003.32
2023-10-16 14:42:00,SystemResetWarning,0838.9,5.00,000.00,027.6,026.4,000.0,036.0,029.4,16.0,0000.0,0008.72,0003.68,0003.32
2023-10-16 14:43:00,SystemResetWarning,0838.9,5.00,000.00,027.7,026.4,000.0,036.0,029.4,16.0,0000.0,0008.74,0003.68,0003.31
2023-10-16 14:44:00,SystemResetWarning,0838.8,5.00,000.00,027.7,026.4,000.0,036.0,029.4,15.7,0000.0,0008.71,0003.67,0003.30
2023-10-16 14:45:00,SystemResetWarning,0838.8,5.00,000.00,027.7,026.4,000.0,036.0,029.4,15.6,0000.0,0008.50,0003.64,0003.27
2023-10-16 14:46:00,SystemResetWarning,0838.9,5.00,000.00,027.7,026.4,000.0,036.1,029.4,15.7,0000.0,0008.26,0003.68,0003.27
2023-10-16 14:47:00,SystemResetWarning,0838.9,5.00,000.00,027.7,026.4,000.0,036.1,029.4,15.7,0000.0,0007.56,0003.75,0003.28
2023-10-16 14:48:00,SystemResetWarning,0838.9,5.00,000.00,027.7,026.4,000.0,036.1,029.4,15.7,0000.0,0007.60,0003.77,0003.28
2023-10-16 14:49:00,SystemResetWarning,0838.9,5.00,000.00,027.7,026.5,000.0,036.1,029.5,15.6,0000.0,0008.04,0003.80,0003.28
2023-10-16 14:50:00,SystemResetWarning,0838.9,4.99,000.00,027.8,026.5,000.0,036.1,029.5,15.2,0000.0,0008.14,0003.84,0003.28
2023-10-16 14:51:00,SystemResetWarning,0838.9,5.00,000.00,027.8,026.5,000.0,036.1,029.5,15.3,0000.0,0008.16,0003.87,0003.28
2023-10-16 14:52:00,SystemResetWarning,0838.9,5.00,000.00,027.8,026.5,000.0,036.1,029.5,15.9,0000.0,0008.17,0003.88,0003.29
2023-10-16 14:53:00,SystemResetWarning,0838.9,5.00,000.00,027.8,026.5,000.0,036.2,029.5,16.1,0000.0,0008.21,0003.91,0003.30
2023-10-16 14:54:00,SystemResetWarning,0838.9,5.01,000.00,027.8,026.5,000.0,036.2,029.5,16.0,0000.0,0008.18,0003.92,0003.32
2023-10-16 14:55:00,SystemResetWarning,0838.9,5.01,000.00,027.8,026.6,000.0,036.2,029.5,15.9,0000.0,0008.22,0003.94,0003.33
2023-10-16 14:56:00,SystemResetWarning,0838.9,5.00,000.00,027.8,026.6,000.0,036.2,029.5,15.8,0000.0,0008.21,0003.94,0003.34
2023-10-16 14:57:00,SystemResetWarning,0838.9,5.00,000.00,027.9,026.6,000.0,036.2,029.5,15.9,0000.0,0008.18,0003.91,0003.34
2023-10-16 14:58:00,SystemResetWarning,0838.9,5.00,000.00,027.9,026.6,000.0,036.2,029.6,15.9,0000.0,0007.99,0003.88,0003.34
2023-10-16 14:59:00,SystemResetWarning,0838.9,5.00,000.00,027.9,026.6,000.0,036.2,029.6,16.0,0000.0,0008.09,0003.89,0003.34
